EJA409 KVJI-MYNN

Flight info

Callsign EJA409
Flight time N/A
Altitude 41000
Route HMV DCT HRTWL Q77 ETORE DCT ONEWY DCT EBAYY DCT FOMGU Y624 ZFP BR65V PEACH
Aircraft C68A/M-SDFGHRWY/SB1

Departure

Time 2026-05-03 22:53
Airport Virginia Highlands Airport (KVJI)

Arrival

Time N/A
Airport Lynden Pindling International Airport (MYNN)
Time Latitude Longitude Altitude Speed Heading
2026-05-03 22:38 36.68543 -82.03378 2076 ft 0 kts 237°
2026-05-03 22:45 36.68529 -82.03415 2076 ft 11 kts 245°
2026-05-03 22:45 36.68549 -82.03466 2076 ft 5 kts 344°
2026-05-03 22:45 36.68571 -82.03444 2075 ft 0 kts 56°
2026-05-03 22:46 36.68599 -82.03394 2075 ft 15 kts 56°
2026-05-03 22:46 36.68667 -82.03267 2074 ft 19 kts 56°
2026-05-03 22:46 36.68747 -82.03121 2070 ft 21 kts 56°
2026-05-03 22:46 36.68826 -82.02976 2072 ft 19 kts 56°
2026-05-03 22:47 36.68899 -82.02840 2072 ft 18 kts 56°
2026-05-03 22:47 36.68937 -82.02770 2073 ft 0 kts 56°
2026-05-03 22:51 36.68944 -82.02758 2070 ft 8 kts 49°
2026-05-03 22:51 36.69009 -82.02719 2075 ft 12 kts 23°
2026-05-03 22:52 36.69038 -82.02731 2075 ft 3 kts 236°
2026-05-03 22:52 36.69037 -82.02732 2075 ft 0 kts 236°
2026-05-03 22:52 36.68935 -82.02921 2072 ft 72 kts 236°
2026-05-03 22:52 36.68469 -82.03783 2151 ft 161 kts 237°
2026-05-03 22:53 36.67774 -82.05098 2954 ft 209 kts 239°
2026-05-03 22:53 36.66901 -82.06792 3800 ft 244 kts 240°
2026-05-03 22:53 36.65941 -82.08545 4571 ft 247 kts 238°
2026-05-03 22:53 36.64938 -82.10307 4992 ft 256 kts 238°
2026-05-03 22:54 36.63897 -82.12152 5005 ft 262 kts 238°
2026-05-03 22:54 36.62843 -82.14015 4989 ft 266 kts 237°
2026-05-03 22:54 36.61514 -82.15586 4988 ft 265 kts 212°
2026-05-03 22:54 36.59673 -82.16069 5726 ft 274 kts 178°
2026-05-03 22:55 36.57784 -82.15697 6474 ft 278 kts 169°
2026-05-03 22:55 36.55883 -82.15206 7142 ft 279 kts 171°
2026-05-03 22:55 36.54000 -82.14834 8336 ft 269 kts 175°
2026-05-03 22:55 36.52132 -82.14499 10063 ft 271 kts 176°
2026-05-03 22:56 36.50301 -82.14169 11669 ft 268 kts 177°
2026-05-03 22:56 36.48430 -82.13829 13105 ft 275 kts 178°
2026-05-03 22:56 36.46524 -82.13478 14430 ft 279 kts 178°
2026-05-03 22:56 36.44590 -82.13123 15715 ft 281 kts 179°
2026-05-03 22:57 36.42656 -82.12958 16965 ft 277 kts 191°
2026-05-03 22:57 36.40725 -82.13035 18222 ft 279 kts 189°
2026-05-03 22:57 36.38769 -82.13020 19289 ft 282 kts 189°
2026-05-03 22:57 36.36815 -82.13026 20372 ft 281 kts 191°
2026-05-03 22:58 36.34861 -82.13078 21475 ft 280 kts 193°
2026-05-03 22:58 36.32913 -82.13116 22504 ft 281 kts 193°
2026-05-03 22:58 36.30945 -82.13104 23514 ft 285 kts 193°
2026-05-03 22:58 36.28971 -82.13087 24344 ft 283 kts 195°
2026-05-03 22:59 36.27002 -82.13145 25173 ft 284 kts 195°
2026-05-03 22:59 36.25011 -82.13192 25969 ft 287 kts 195°
2026-05-03 22:59 36.23008 -82.13207 26755 ft 290 kts 195°
2026-05-03 22:59 36.20977 -82.13222 27481 ft 293 kts 195°
2026-05-03 23:00 36.18932 -82.13249 28159 ft 295 kts 195°
2026-05-03 23:00 36.16898 -82.13274 28844 ft 296 kts 195°
2026-05-03 23:00 36.14825 -82.13271 29528 ft 297 kts 196°
2026-05-03 23:00 36.12761 -82.13344 30154 ft 300 kts 196°
2026-05-03 23:01 36.10644 -82.13357 30664 ft 306 kts 195°
2026-05-03 23:01 36.08506 -82.13358 31241 ft 308 kts 195°
2026-05-03 23:01 36.06353 -82.13391 31775 ft 311 kts 195°
2026-05-03 23:01 36.04175 -82.13423 32318 ft 314 kts 195°
2026-05-03 23:02 36.01975 -82.13448 32817 ft 318 kts 195°
2026-05-03 23:02 35.99772 -82.13473 33286 ft 322 kts 195°
2026-05-03 23:02 35.97496 -82.13496 33787 ft 324 kts 195°
2026-05-03 23:02 35.95248 -82.13524 34201 ft 329 kts 195°
2026-05-03 23:03 35.92944 -82.13553 34524 ft 333 kts 194°
2026-05-03 23:03 35.90609 -82.13579 34853 ft 338 kts 194°
2026-05-03 23:03 35.88236 -82.13601 35213 ft 342 kts 194°
2026-05-03 23:03 35.85838 -82.13631 35571 ft 346 kts 194°
2026-05-03 23:04 35.83413 -82.13662 35911 ft 351 kts 193°
2026-05-03 23:04 35.80960 -82.13689 36231 ft 356 kts 193°
2026-05-03 23:04 35.78472 -82.13714 36568 ft 359 kts 193°
2026-05-03 23:04 35.75954 -82.13744 36894 ft 363 kts 193°
2026-05-03 23:05 35.73974 -82.13768 37178 ft 366 kts 193°
2026-05-03 23:05 35.70235 -82.13811 37582 ft 372 kts 192°
2026-05-03 23:05 35.67627 -82.13839 37917 ft 375 kts 192°
2026-05-03 23:06 35.65003 -82.13867 38202 ft 379 kts 192°
2026-05-03 23:06 35.62349 -82.13899 38467 ft 382 kts 192°
2026-05-03 23:06 35.59711 -82.13930 38757 ft 385 kts 192°
2026-05-03 23:06 35.57019 -82.13958 38991 ft 388 kts 192°
2026-05-03 23:07 35.54311 -82.13989 39228 ft 390 kts 192°
2026-05-03 23:07 35.51592 -82.14019 39459 ft 392 kts 191°
2026-05-03 23:07 35.48849 -82.14051 39622 ft 396 kts 191°
2026-05-03 23:07 35.46085 -82.14084 39842 ft 398 kts 191°
2026-05-03 23:08 35.43307 -82.14116 40056 ft 401 kts 191°
2026-05-03 23:08 35.40501 -82.14146 40256 ft 403 kts 191°
2026-05-03 23:08 35.37693 -82.14176 40466 ft 405 kts 191°
2026-05-03 23:08 35.34862 -82.14209 40663 ft 408 kts 191°
2026-05-03 23:09 35.32017 -82.14242 40863 ft 410 kts 191°
2026-05-03 23:09 35.29155 -82.14274 41045 ft 412 kts 191°
2026-05-03 23:09 35.26269 -82.14309 41056 ft 418 kts 191°
2026-05-03 23:10 35.20718 -82.14364 41056 ft 416 kts 191°
2026-05-03 23:10 35.14975 -82.14430 41063 ft 410 kts 191°
2026-05-03 23:11 35.09272 -82.14497 41066 ft 410 kts 191°
2026-05-03 23:11 35.03547 -82.14561 41068 ft 413 kts 191°
2026-05-03 23:12 34.97786 -82.14626 41076 ft 415 kts 191°
2026-05-03 23:12 34.92048 -82.14688 41073 ft 414 kts 191°
2026-05-03 23:13 34.86304 -82.14752 41074 ft 411 kts 191°
2026-05-03 23:13 34.80593 -82.14817 41071 ft 410 kts 191°
2026-05-03 23:14 34.74895 -82.14882 41083 ft 410 kts 191°
2026-05-03 23:14 34.70143 -82.14935 41074 ft 411 kts 191°
2026-05-03 23:15 34.64407 -82.14998 41080 ft 412 kts 191°
2026-05-03 23:15 34.58664 -82.15062 41085 ft 413 kts 191°
2026-05-03 23:16 34.52917 -82.15124 41082 ft 412 kts 191°
2026-05-03 23:16 34.47199 -82.15188 41081 ft 410 kts 191°
2026-05-03 23:17 34.41509 -82.15251 41093 ft 408 kts 191°
2026-05-03 23:17 34.35826 -82.15315 41092 ft 409 kts 191°
2026-05-03 23:18 34.30113 -82.15378 41090 ft 411 kts 191°
2026-05-03 23:18 34.24367 -82.15392 41088 ft 416 kts 188°
2026-05-03 23:19 34.18586 -82.14987 41090 ft 414 kts 188°
2026-05-03 23:19 34.12835 -82.14630 41094 ft 413 kts 187°
2026-05-03 23:20 34.07138 -82.14236 41092 ft 411 kts 188°
2026-05-03 23:20 34.01416 -82.13876 41090 ft 413 kts 188°
2026-05-03 23:21 33.95669 -82.13491 41092 ft 415 kts 188°
2026-05-03 23:21 33.89883 -82.13116 41019 ft 417 kts 188°
2026-05-03 23:21 33.86957 -82.12923 40915 ft 414 kts 188°
2026-05-03 23:22 33.81389 -82.12555 40713 ft 402 kts 188°
2026-05-03 23:22 33.75809 -82.12194 40507 ft 401 kts 188°
2026-05-03 23:23 33.70243 -82.11828 40310 ft 400 kts 188°
2026-05-03 23:23 33.64775 -82.11477 40120 ft 400 kts 188°
2026-05-03 23:24 33.59248 -82.11110 40092 ft 394 kts 189°
2026-05-03 23:24 33.53770 -82.10764 40087 ft 396 kts 188°
2026-05-03 23:25 33.48250 -82.10401 40084 ft 398 kts 188°
2026-05-03 23:25 33.42706 -82.10037 40127 ft 402 kts 186°
2026-05-03 23:26 33.37066 -82.09699 40096 ft 407 kts 188°
2026-05-03 23:26 33.31382 -82.09313 40074 ft 409 kts 186°
2026-05-03 23:27 33.25771 -82.08945 40069 ft 403 kts 187°
2026-05-03 23:27 33.20170 -82.08592 40070 ft 403 kts 187°
2026-05-03 23:28 33.14557 -82.08227 40070 ft 405 kts 187°
2026-05-03 23:28 33.08926 -82.07867 40075 ft 406 kts 187°
2026-05-03 23:29 33.03274 -82.07501 40076 ft 407 kts 187°
2026-05-03 23:29 32.97626 -82.07144 40078 ft 404 kts 187°
2026-05-03 23:30 32.92019 -82.06778 40078 ft 403 kts 187°
2026-05-03 23:30 32.86432 -82.06429 40083 ft 402 kts 187°
2026-05-03 23:31 32.80835 -82.06067 40077 ft 403 kts 187°
2026-05-03 23:31 32.75222 -82.05709 40078 ft 404 kts 187°
2026-05-03 23:32 32.69639 -82.05358 40082 ft 405 kts 187°
2026-05-03 23:32 32.64003 -82.04995 40085 ft 405 kts 187°
2026-05-03 23:33 32.58389 -82.04638 40087 ft 402 kts 187°
2026-05-03 23:33 32.52811 -82.04286 40090 ft 400 kts 187°
2026-05-03 23:34 32.47246 -82.03933 40091 ft 399 kts 187°
2026-05-03 23:34 32.41745 -82.03700 40088 ft 398 kts 189°
2026-05-03 23:35 32.36221 -82.03503 40092 ft 400 kts 189°
2026-05-03 23:35 32.30653 -82.03313 40090 ft 401 kts 189°
2026-05-03 23:36 32.25084 -82.03116 40089 ft 399 kts 189°
2026-05-03 23:36 32.19540 -82.02926 40091 ft 397 kts 189°
2026-05-03 23:37 32.14026 -82.02735 40091 ft 395 kts 189°
2026-05-03 23:37 32.08520 -82.02547 40092 ft 396 kts 189°
2026-05-03 23:38 32.03001 -82.02356 40089 ft 397 kts 189°
2026-05-03 23:38 31.97494 -82.02166 40093 ft 399 kts 189°
2026-05-03 23:39 31.91937 -82.01977 40092 ft 399 kts 189°
2026-05-03 23:39 31.86371 -82.01665 40093 ft 404 kts 185°
2026-05-03 23:40 31.80786 -82.00574 40101 ft 407 kts 182°
2026-05-03 23:40 31.75210 -81.99451 40112 ft 406 kts 182°
2026-05-03 23:41 31.69658 -81.98309 40122 ft 404 kts 182°
2026-05-03 23:41 31.64156 -81.97190 40128 ft 404 kts 182°
2026-05-03 23:42 31.58606 -81.96058 40128 ft 405 kts 182°
2026-05-03 23:42 31.53137 -81.94945 40127 ft 406 kts 182°
2026-05-03 23:43 31.47540 -81.93806 40127 ft 407 kts 182°
2026-05-03 23:43 31.41979 -81.92677 40124 ft 407 kts 182°
2026-05-03 23:44 31.36405 -81.91544 40121 ft 405 kts 182°
2026-05-03 23:44 31.30863 -81.90422 40112 ft 403 kts 183°
2026-05-03 23:45 31.25346 -81.89305 40106 ft 401 kts 183°
2026-05-03 23:45 31.19830 -81.88192 40101 ft 402 kts 183°
2026-05-03 23:46 31.14306 -81.87076 40103 ft 404 kts 183°
2026-05-03 23:46 31.09258 -81.86059 40107 ft 405 kts 183°
2026-05-03 23:47 31.03707 -81.84938 40109 ft 403 kts 183°
2026-05-03 23:47 30.98185 -81.83828 40109 ft 400 kts 184°
2026-05-03 23:48 30.92744 -81.82734 40107 ft 399 kts 184°
2026-05-03 23:48 30.89079 -81.82001 40106 ft 400 kts 184°
2026-05-03 23:49 30.84400 -81.81062 40107 ft 401 kts 184°
2026-05-03 23:50 30.79812 -81.80142 40110 ft 402 kts 184°
2026-05-03 23:50 30.73345 -81.78848 40113 ft 403 kts 184°
2026-05-03 23:51 30.67834 -81.77743 40111 ft 400 kts 184°
2026-05-03 23:51 30.62443 -81.76690 40113 ft 395 kts 186°
2026-05-03 23:52 30.57073 -81.76161 40111 ft 389 kts 188°
2026-05-03 23:52 30.51656 -81.75635 40110 ft 391 kts 189°
2026-05-03 23:53 30.46212 -81.75130 40106 ft 393 kts 188°
2026-05-03 23:53 30.40774 -81.74614 40110 ft 391 kts 189°
2026-05-03 23:54 30.35396 -81.74112 40130 ft 388 kts 189°
2026-05-03 23:54 30.30021 -81.73607 40127 ft 387 kts 189°
2026-05-03 23:55 30.24651 -81.73108 40111 ft 389 kts 189°
2026-05-03 23:55 30.19242 -81.72600 40111 ft 390 kts 189°
2026-05-03 23:56 30.13824 -81.72094 40114 ft 390 kts 189°
2026-05-03 23:56 30.08407 -81.71587 40114 ft 388 kts 189°
2026-05-03 23:57 30.03033 -81.71088 40109 ft 387 kts 189°
2026-05-03 23:57 29.98578 -81.70672 40110 ft 386 kts 189°
2026-05-03 23:58 29.94246 -81.70271 40111 ft 386 kts 189°
2026-05-03 23:58 29.89208 -81.69802 40118 ft 387 kts 189°
2026-05-03 23:59 29.83827 -81.69303 40116 ft 388 kts 189°
2026-05-03 23:59 29.78432 -81.68803 40115 ft 389 kts 189°
2026-05-04 00:00 29.73028 -81.68234 40118 ft 394 kts 186°
2026-05-04 00:00 29.67578 -81.66818 40111 ft 410 kts 178°
2026-05-04 00:01 29.62177 -81.64412 40116 ft 419 kts 173°
2026-05-04 00:01 29.56792 -81.61877 40110 ft 417 kts 173°
2026-05-04 00:02 29.51387 -81.59315 40110 ft 427 kts 173°
2026-05-04 00:02 29.45845 -81.56698 40115 ft 435 kts 172°
2026-05-04 00:03 29.40303 -81.54060 40109 ft 427 kts 173°
2026-05-04 00:03 29.34815 -81.51489 40100 ft 427 kts 173°
2026-05-04 00:04 29.29300 -81.48882 40097 ft 430 kts 173°
2026-05-04 00:04 29.23739 -81.46265 40099 ft 432 kts 173°
2026-05-04 00:05 29.18178 -81.43648 40096 ft 430 kts 173°
2026-05-04 00:05 29.12652 -81.41051 40099 ft 429 kts 173°